User: anonymous   Login
Location: Brunembert
(50.7122°N, 1.8935°E)
Time: 04:10:39
(UTC+00:00)
Language:

Orbus 7S? - Orbit

View from above orbital plane
View from above orbital plane
View from above satellite
View from above satellite

Ground track
Ground track

The orbit data is extracted from the following two-line orbital elements,

1 22519U 92086C   21146.87645314 0.00002400  00000-0  21394-3 0    07
2 22519  56.8931  50.6054 3134726  59.6171 300.3829  9.01493138    01
Epoch (UTC): 26 May 2021 21:02:05
Eccentricity: 0.3134726
inclination: 56.8931°
perigee height: 317 km
apogee height: 6431 km
right ascension of ascending node: 50.6054°
argument of perigee: 59.6171°
revolutions per day: 9.01493138
mean anomaly at epoch: 300.3829°
orbit number at epoch: 0

The dashed part of the orbit path shows where the satellite is in the earth's shadow,  

DLR